Augusto C. Sandino (Managua) International Airport
MNMG : now visible

Airfield :











YOU CAN JOIN US ON...

 
LOGIN :

Register | Disclaimer

   EN    FR    IT 

 









Legend :    VFR   Marginal VFR   IFR   Intensive IFR   Very Intensive IFR
Visi :
Ceiling :
>= 8 km
>= 3000ft
5 to 8 km
1000 to 3000 ft
1500m to 5 km
500 to 1000 ft
800 to 1500m
200 to 500 ft
< 800m
< 200 ft
Symbols :   Thunderstorms  Fog  Heavy snow  Heavy precipitations  Wind > 20 kt






- Airport Elevation : 194 ft
- IATA code : MGA


MNMG - Augusto C. Sandino (Managua) International

CURRENT METAR :
  • 260100Z 35004KT 9000 -DZ BKN020 SCT070 27/24 Q1012 A2990 TEMPO 8000 -RA

EXPIRED METARs :
  • 260040Z 34004KT 9000 DS SCT020 SCT070
  • 260000Z 33004KT 9000 FEW018TCU BKN070 27/23 Q1011 A2988 FU TCU/E TEMPO 8000 -DZ

TAF TAF MNMG
Valid from the 26 at 00:00 until the 27 at 00:00 UTC


252154Z 2600/2624 VRB08G18KT 7000 TSRA/VCRA SCT020CB SCT070
BECMG 2602/2604 5000 TSRA
TEMPO 2606/2610 VRB04KT 9000 VCRA/DZ FEW020CB SCT022
MHTG FIR / North America



MET'MAP, your aeronautical weather chart ! - Copyright ORBIFLY December 2007 - Disclaimer

ORBIFLY MET'MAP TEAM :

Programming & Development : Alexandra Zaïnal
Concept & original design : Baudouin d'Aumeries
Assistance for programming : Marc-Olivier Méhu
Technical & hardware support : Manuel Goepfert

Contact : metmap@orbifly.com




SOURCES & CREDITS :

   NOAA       Earth
Advisory